TimeEDT,TemperatureF,Dew PointF,Humidity,Sea Level PressureIn,VisibilityMPH,Wind Direction,Wind SpeedMPH,Gust SpeedMPH,PrecipitationIn,Events,Conditions,WindDirDegrees,DateUTC
12:52 AM,71.6,71.6,100,30.05,10.0,SW,4.6,-,N/A,,Mostly Cloudy,220,2013-07-22 04:52:00
12:58 AM,71.4,71.4,100,30.03,10.0,SSW,3.5,-,N/A,,Mostly Cloudy,210,2013-07-22 04:58:00
1:33 AM,71.6,71.6,100,30.04,10.0,South,3.5,-,N/A,,Mostly Cloudy,170,2013-07-22 05:33:00
1:38 AM,71.6,71.6,100,30.04,10.0,South,3.5,-,N/A,,Mostly Cloudy,180,2013-07-22 05:38:00
1:58 AM,71.2,71.1,99,30.00,10.0,SSW,3.5,-,N/A,,Overcast,200,2013-07-22 05:58:00
2:43 AM,71.6,71.6,100,30.02,9.0,SW,5.8,-,N/A,,Overcast,220,2013-07-22 06:43:00
2:48 AM,71.6,71.6,100,30.01,10.0,SW,5.8,-,N/A,,Overcast,220,2013-07-22 06:48:00
2:58 AM,71.2,71.2,100,29.99,10.0,WSW,4.6,-,N/A,,Overcast,240,2013-07-22 06:58:00
3:18 AM,71.6,71.6,100,30.01,10.0,WSW,5.8,-,N/A,,Overcast,250,2013-07-22 07:18:00
3:28 AM,71.6,71.6,100,30.01,10.0,WSW,3.5,-,N/A,,Overcast,240,2013-07-22 07:28:00
3:38 AM,71.6,71.6,100,30.01,10.0,WSW,4.6,-,N/A,,Mostly Cloudy,240,2013-07-22 07:38:00
3:53 AM,71.6,71.6,100,30.01,10.0,WSW,5.8,-,N/A,,Overcast,240,2013-07-22 07:53:00
3:58 AM,70.9,70.9,100,29.99,10.0,SW,3.5,-,N/A,,Overcast,230,2013-07-22 07:58:00
4:03 AM,71.6,71.6,100,30.00,10.0,WSW,4.6,-,N/A,,Overcast,240,2013-07-22 08:03:00
4:38 AM,69.8,69.8,100,30.01,10.0,West,5.8,-,N/A,,Scattered Clouds,270,2013-07-22 08:38:00
4:58 AM,69.8,69.8,100,29.99,10.0,WSW,2.3,-,N/A,,Partly Cloudy,240,2013-07-22 08:58:00
5:13 AM,69.8,69.8,100,30.00,10.0,South,2.3,-,N/A,,Mostly Cloudy,170,2013-07-22 09:13:00
5:58 AM,70.2,70.2,100,29.99,10.0,SW,5.8,-,N/A,,Overcast,230,2013-07-22 09:58:00
6:58 AM,70.7,70.7,100,30.01,10.0,WSW,5.8,-,N/A,,Overcast,250,2013-07-22 10:58:00
7:08 AM,71.6,69.8,94,30.03,10.0,West,6.9,-,N/A,,Overcast,260,2013-07-22 11:08:00
7:28 AM,71.6,71.6,100,30.03,10.0,West,8.1,-,N/A,,Overcast,260,2013-07-22 11:28:00
7:30 AM,71.6,69.8,94,30.03,3.0,West,5.8,-,N/A,,Overcast,260,2013-07-22 11:30:00
7:38 AM,71.6,71.6,100,30.04,10.0,WSW,6.9,-,N/A,,Overcast,250,2013-07-22 11:38:00
7:58 AM,71.4,71.1,99,30.02,4.0,West,6.9,-,N/A,,Overcast,260,2013-07-22 11:58:00
8:52 AM,71.6,71.6,100,30.05,2.5,West,5.8,-,N/A,,Light Drizzle,260,2013-07-22 12:52:00
8:58 AM,72.0,71.2,98,30.04,2.5,West,5.8,-,N/A,,Light Drizzle,260,2013-07-22 12:58:00
9:09 AM,71.6,71.6,100,30.06,3.0,WSW,4.6,-,N/A,,Overcast,240,2013-07-22 13:09:00
9:19 AM,73.4,71.6,94,30.06,7.0,WSW,5.8,-,N/A,,Overcast,250,2013-07-22 13:19:00
9:44 AM,73.4,71.6,94,30.05,7.0,SW,5.8,-,N/A,,Overcast,220,2013-07-22 13:44:00
9:49 AM,73.4,71.6,94,30.05,7.0,SW,5.8,-,N/A,,Overcast,230,2013-07-22 13:49:00
9:58 AM,74.1,71.8,92,30.03,7.0,SW,4.6,-,N/A,,Overcast,230,2013-07-22 13:58:00
10:08 AM,75.2,71.6,89,30.05,7.0,WSW,4.6,-,N/A,,Overcast,250,2013-07-22 14:08:00
10:23 AM,75.2,71.6,89,30.04,7.0,Variable,4.6,-,N/A,,Mostly Cloudy,0,2013-07-22 14:23:00
10:43 AM,77.0,73.4,89,30.05,10.0,WSW,5.8,-,N/A,,Mostly Cloudy,240,2013-07-22 14:43:00
10:58 AM,77.5,72.1,83,30.03,10.0,WSW,8.1,-,N/A,,Mostly Cloudy,240,2013-07-22 14:58:00
11:48 AM,80.6,71.6,74,30.05,10.0,West,12.7,18.4,N/A,,Mostly Cloudy,260,2013-07-22 15:48:00
11:58 AM,79.9,71.8,76,30.03,10.0,West,11.5,-,N/A,,Mostly Cloudy,260,2013-07-22 15:58:00
12:58 PM,82.4,71.8,70,30.01,10.0,West,10.4,-,N/A,,Mostly Cloudy,270,2013-07-22 16:58:00
1:58 PM,83.5,72.1,69,29.99,10.0,WSW,11.5,-,N/A,,Mostly Cloudy,240,2013-07-22 17:58:00
2:06 PM,82.4,71.6,70,30.01,3.0,SW,10.4,-,N/A,Rain,Light Rain Showers,230,2013-07-22 18:06:00
2:14 PM,78.8,73.4,83,30.01,7.0,WSW,9.2,20.7,N/A,,Mostly Cloudy,240,2013-07-22 18:14:00
2:40 PM,80.6,75.2,84,30.00,10.0,SW,9.2,-,N/A,Thunderstorm,Thunderstorm,220,2013-07-22 18:40:00
2:53 PM,80.6,75.2,84,29.99,10.0,SW,6.9,-,N/A,,Mostly Cloudy,220,2013-07-22 18:53:00
2:58 PM,80.6,75.2,84,29.96,10.0,SW,10.4,-,N/A,Rain,Light Rain Showers,220,2013-07-22 18:58:00
3:53 PM,78.8,73.4,83,29.97,10.0,Variable,3.5,-,N/A,,Mostly Cloudy,0,2013-07-22 19:53:00
3:58 PM,78.1,73.6,86,29.95,10.0,SW,4.6,-,0.00,,Mostly Cloudy,230,2013-07-22 19:58:00
4:58 PM,83.5,74.5,74,29.91,10.0,Variable,4.6,-,N/A,,Scattered Clouds,0,2013-07-22 20:58:00
5:58 PM,83.7,74.3,73,29.90,10.0,South,6.9,-,N/A,,Mostly Cloudy,190,2013-07-22 21:58:00
6:58 PM,82.6,74.1,75,29.90,10.0,SSW,8.1,-,N/A,,Mostly Cloudy,200,2013-07-22 22:58:00
7:58 PM,81.1,74.3,80,29.91,10.0,SW,10.4,-,N/A,,Mostly Cloudy,220,2013-07-22 23:58:00
8:58 PM,78.8,72.3,80,29.94,10.0,SW,12.7,20.7,N/A,,Overcast,220,2013-07-23 00:58:00
9:58 PM,76.6,72.9,88,29.94,10.0,WSW,8.1,-,N/A,,Scattered Clouds,240,2013-07-23 01:58:00
10:58 PM,75.6,70.0,83,29.95,10.0,WSW,8.1,-,N/A,,Scattered Clouds,240,2013-07-23 02:58:00
11:58 PM,73.8,70.2,88,29.96,10.0,WSW,11.5,-,N/A,,Clear,250,2013-07-23 03:58:00